Location: Observatorio Ernesto Juarez Davis
(29.2175°N, 110.7606°W)
Time: 15:14:20
(UTC-07:00)

ISS - Visible Passes

Search period start: 15 October 2018 00:00
Search period end: 25 October 2018 00:00
Orbit: 403 x 408 km, 51.6° (Epoch: 16 October)

Date Brightness Start Highest point End Pass type
(mag) Time Alt. Az. Time Alt. Az. Time Alt. Az.
15 Oct -1.9 18:35:48 10° WNW 18:38:46 31° SW 18:41:43 10° SSE visible
17 Oct -0.2 18:30:27 10° WSW 18:31:07 10° SW 18:31:45 10° SW visible
22 Oct -0.7 06:00:32 10° SSE 06:02:38 16° SE 06:04:44 10° E visible
24 Oct -2.9 05:51:41 10° SSW 05:54:51 51° SE 05:58:02 10° NE visible
